When you browse on this site, cookies collect data to enhance your experience and personalize the content and advertising you see.
Visit our Privacy Policy to learn more. By continuing to use the site, you agree to this use of cookies and data.
  • In Hungary
  • List of Countries
  • For 7 days
  • Water Temperature
  • Weather Map
  • News
  • Weather Widgets
  • user-avatar
    Login

    Hourly Weather Norfolk

    Today, 13 November, Wednesday

    Time Temperature Precipitation Wind Pressure Humidity
    00:00 -1°C° 0.2 mm 8 mps 766 mmHg 64%
    01:00 -2°C° 0.2 mm 8 mps 767 mmHg 65%
    02:00 -2°C° 0.1 mm 8 mps 767 mmHg 62%
    03:00 -2°C° 0.1 mm 8 mps 768 mmHg 60%
    04:00 -3°C° 0.1 mm 7 mps 768 mmHg 58%
    05:00 -3°C° 0 mm 7 mps 769 mmHg 57%
    06:00 -3°C° 0 mm 7 mps 770 mmHg 56%
    07:00 -3°C° 0 mm 7 mps 770 mmHg 55%
    08:00 -3°C° 0 mm 6 mps 771 mmHg 54%
    09:00 -2°C° 0 mm 6 mps 771 mmHg 52%
    10:00 -1°C° 0 mm 6 mps 772 mmHg 51%
    11:00 -1°C° 0 mm 6 mps 772 mmHg 49%
    12:00 +1°C° 0 mm 5 mps 772 mmHg 48%
    13:00 +1°C° 0 mm 4 mps 771 mmHg 46%
    14:00 +1°C° 0 mm 4 mps 771 mmHg 47%
    15:00 +1°C° 0 mm 4 mps 771 mmHg 47%
    16:00 +2°C° 0 mm 3 mps 771 mmHg 48%
    17:00 +2°C° 0 mm 3 mps 772 mmHg 51%
    18:00 +1°C° 0 mm 3 mps 772 mmHg 53%
    19:00 +2°C° 0 mm 2 mps 772 mmHg 56%
    20:00 +2°C° 0 mm 2 mps 772 mmHg 56%
    21:00 +2°C° 0 mm 2 mps 772 mmHg 57%
    22:00 +2°C° 0 mm 2 mps 772 mmHg 58%
    23:00 +3°C° 0 mm 1 mps 772 mmHg 59%

    Tomorrow, 14 November, Thursday

    Time Temperature Precipitation Wind Pressure Humidity
    00:00 +3°C° 0 mm 1 mps 772 mmHg 60%
    01:00 +3°C° 0 mm 1 mps 772 mmHg 62%
    02:00 +3°C° 0 mm 1 mps 772 mmHg 63%
    03:00 +3°C° 0 mm 1 mps 771 mmHg 64%
    04:00 +3°C° 0 mm 1 mps 771 mmHg 66%
    05:00 +3°C° 0 mm 1 mps 771 mmHg 67%
    06:00 +3°C° 0 mm 1 mps 772 mmHg 69%
    07:00 +3°C° 0 mm 1 mps 772 mmHg 71%
    08:00 +5°C° 0 mm 1 mps 772 mmHg 67%
    09:00 +7°C° 0 mm 1 mps 772 mmHg 64%
    10:00 +9°C° 0 mm 1 mps 772 mmHg 61%
    11:00 +9°C° 0 mm 1 mps 772 mmHg 61%
    12:00 +9°C° 0 mm 2 mps 771 mmHg 60%
    13:00 +10°C° 0 mm 2 mps 771 mmHg 60%
    14:00 +10°C° 0 mm 2 mps 770 mmHg 63%
    15:00 +10°C° 0 mm 2 mps 770 mmHg 66%
    16:00 +10°C° 0 mm 2 mps 769 mmHg 68%
    17:00 +10°C° 0 mm 2 mps 769 mmHg 72%
    18:00 +9°C° 0 mm 3 mps 769 mmHg 75%
    19:00 +9°C° 0 mm 3 mps 769 mmHg 79%
    20:00 +9°C° 0 mm 3 mps 769 mmHg 81%
    21:00 +10°C° 0 mm 2 mps 768 mmHg 84%
    22:00 +10°C° 0 mm 2 mps 768 mmHg 87%
    23:00 +10°C° 0 mm 2 mps 768 mmHg 87%

    Day after tomorrow, 15 November, Friday

    Time Temperature Precipitation Wind Pressure Humidity
    00:00 +10°C° 0 mm 2 mps 768 mmHg 88%
    01:00 +10°C° 0 mm 2 mps 767 mmHg 88%
    02:00 +10°C° 0.1 mm 3 mps 767 mmHg 89%
    03:00 +10°C° 0.1 mm 3 mps 766 mmHg 90%
    04:00 +10°C° 0.1 mm 4 mps 766 mmHg 90%
    05:00 +10°C° 0.1 mm 4 mps 766 mmHg 92%
    06:00 +10°C° 0.1 mm 4 mps 766 mmHg 92%
    07:00 +10°C° 0.1 mm 4 mps 766 mmHg 92%
    08:00 +10°C° 0.1 mm 5 mps 766 mmHg 92%
    09:00 +10°C° 0.1 mm 5 mps 766 mmHg 92%
    10:00 +10°C° 0.1 mm 5 mps 766 mmHg 92%
    11:00 +10°C° 0.3 mm 5 mps 765 mmHg 92%
    12:00 +10°C° 0.3 mm 6 mps 765 mmHg 91%
    13:00 +10°C° 0.3 mm 6 mps 764 mmHg 91%
    14:00 +11°C° 0.7 mm 6 mps 763 mmHg 91%
    15:00 +11°C° 0.7 mm 7 mps 763 mmHg 91%
    16:00 +11°C° 0.7 mm 7 mps 762 mmHg 91%
    17:00 +11°C° 0.8 mm 8 mps 762 mmHg 90%
    18:00 +11°C° 0.8 mm 8 mps 762 mmHg 89%
    19:00 +11°C° 0.8 mm 8 mps 762 mmHg 88%
    20:00 +10°C° 0 mm 9 mps 762 mmHg 80%
    21:00 +10°C° 0 mm 9 mps 762 mmHg 72%
    22:00 +8°C° 0 mm 9 mps 762 mmHg 64%
    23:00 +8°C° 0 mm 10 mps 762 mmHg 65%

    16 November, Saturday

    Time Temperature Precipitation Wind Pressure Humidity
    00:00 +7°C° 0 mm 10 mps 762 mmHg 66%
    01:00 +7°C° 0 mm 10 mps 762 mmHg 67%
    02:00 +6°C° 0.3 mm 10 mps 763 mmHg 70%
    03:00 +5°C° 0.3 mm 10 mps 763 mmHg 72%
    04:00 +5°C° 0.3 mm 10 mps 763 mmHg 75%
    05:00 +3°C° 0.5 mm 10 mps 763 mmHg 76%
    06:00 +3°C° 0.5 mm 11 mps 764 mmHg 78%
    07:00 +2°C° 0.5 mm 11 mps 764 mmHg 79%
    08:00 +2°C° 0.4 mm 11 mps 764 mmHg 80%
    09:00 +3°C° 0.4 mm 11 mps 765 mmHg 81%
    10:00 +3°C° 0.4 mm 11 mps 765 mmHg 82%
    11:00 +3°C° 0.1 mm 11 mps 765 mmHg 80%
    12:00 +3°C° 0.1 mm 11 mps 765 mmHg 78%
    13:00 +3°C° 0.1 mm 11 mps 764 mmHg 77%
    14:00 +4°C° 0.1 mm 11 mps 764 mmHg 77%
    15:00 +4°C° 0.1 mm 11 mps 765 mmHg 78%
    16:00 +6°C° 0.1 mm 11 mps 765 mmHg 78%
    17:00 +6°C° 0.1 mm 11 mps 765 mmHg 77%
    18:00 +6°C° 0.1 mm 11 mps 765 mmHg 77%
    19:00 +6°C° 0.1 mm 11 mps 765 mmHg 76%
    20:00 +7°C° 0 mm 11 mps 764 mmHg 75%
    21:00 +7°C° 0 mm 10 mps 764 mmHg 74%
    22:00 +7°C° 0 mm 10 mps 764 mmHg 73%
    23:00 +7°C° 0 mm 10 mps 764 mmHg 73%

    17 November, Sunday

    Time Temperature Precipitation Wind Pressure Humidity
    00:00 +7°C° 0 mm 10 mps 763 mmHg 73%
    01:00 +7°C° 0 mm 9 mps 763 mmHg 73%
    02:00 +7°C° 0 mm 9 mps 763 mmHg 73%
    03:00 +7°C° 0 mm 9 mps 762 mmHg 73%
    04:00 +7°C° 0 mm 9 mps 762 mmHg 73%
    05:00 +7°C° 0 mm 9 mps 762 mmHg 74%
    06:00 +6°C° 0 mm 9 mps 762 mmHg 76%
    07:00 +6°C° 0 mm 8 mps 762 mmHg 77%
    08:00 +6°C° 0 mm 8 mps 763 mmHg 77%
    09:00 +6°C° 0 mm 8 mps 763 mmHg 77%
    10:00 +5°C° 0 mm 8 mps 763 mmHg 77%
    11:00 +6°C° 0 mm 8 mps 762 mmHg 76%
    12:00 +6°C° 0 mm 8 mps 762 mmHg 76%
    13:00 +6°C° 0 mm 8 mps 761 mmHg 75%
    14:00 +8°C° 0 mm 7 mps 761 mmHg 75%
    15:00 +8°C° 0 mm 7 mps 761 mmHg 74%
    16:00 +8°C° 0 mm 7 mps 760 mmHg 74%
    17:00 +8°C° 0 mm 7 mps 760 mmHg 75%
    18:00 +8°C° 0 mm 6 mps 761 mmHg 77%
    19:00 +8°C° 0 mm 6 mps 761 mmHg 78%
    20:00 +8°C° 0 mm 6 mps 761 mmHg 80%
    21:00 +7°C° 0 mm 6 mps 761 mmHg 82%
    22:00 +7°C° 0 mm 6 mps 760 mmHg 84%
    23:00 +7°C° 0 mm 5 mps 760 mmHg 85%

    18 November, Monday

    Time Temperature Precipitation Wind Pressure Humidity
    00:00 +7°C° 0 mm 5 mps 760 mmHg 86%
    01:00 +7°C° 0 mm 4 mps 759 mmHg 87%
    02:00 +7°C° 0 mm 4 mps 759 mmHg 87%
    03:00 +7°C° 0 mm 4 mps 759 mmHg 87%
    04:00 +8°C° 0 mm 4 mps 759 mmHg 86%
    05:00 +8°C° 0 mm 4 mps 759 mmHg 86%
    06:00 +8°C° 0 mm 4 mps 759 mmHg 87%
    07:00 +8°C° 0 mm 4 mps 759 mmHg 87%
    08:00 +8°C° 0 mm 4 mps 759 mmHg 86%
    09:00 +10°C° 0 mm 4 mps 760 mmHg 85%
    10:00 +10°C° 0 mm 4 mps 760 mmHg 84%
    11:00 +10°C° 0 mm 4 mps 759 mmHg 83%
    12:00 +11°C° 0 mm 4 mps 759 mmHg 82%
    13:00 +11°C° 0 mm 4 mps 758 mmHg 81%
    14:00 +11°C° 0 mm 4 mps 758 mmHg 81%
    15:00 +11°C° 0 mm 4 mps 758 mmHg 81%
    16:00 +11°C° 0 mm 3 mps 758 mmHg 81%
    17:00 +11°C° 0 mm 4 mps 757 mmHg 82%
    18:00 +11°C° 0 mm 4 mps 757 mmHg 83%
    19:00 +11°C° 0 mm 4 mps 757 mmHg 84%
    20:00 +10°C° 0 mm 4 mps 758 mmHg 84%
    21:00 +10°C° 0 mm 3 mps 758 mmHg 85%
    22:00 +10°C° 0 mm 3 mps 758 mmHg 85%
    23:00 +9°C° 0 mm 3 mps 758 mmHg 87%
    Show more